Location: Couziers
(47.1575°N, 0.0826°E)
Time: 11:04:51
(UTC+00:00)

Daily predictions for brighter satellites

Satellite Brightness Start Highest point End
(mag) Time Altitude Azimuth Time Altitude Azimuth Time Altitude Azimuth
Nadezhda 4 Rocket 4.1 16:35:29 10° N 16:41:49 66° E 16:48:05 10° SSE
ATLAS 2AS CENTAUR R/B 4.2 16:35:48 10° WNW 16:42:16 28° NNW 16:48:31 10° NE
Cosmos 990 Rocket 4.0 16:38:36 10° NNW 16:43:48 68° ENE 16:48:56 10° SSE
Cosmos 1697 Rocket 2.8 16:40:30 10° NNW 16:46:02 53° ENE 16:51:30 10° SE
FengYun 1-2 T 4.3 16:40:53 10° SE 16:46:19 56° ENE 16:51:44 10° N
Cosmos 1271 Rocket 4.1 16:43:31 10° SW 16:47:16 41° WNW 16:51:04 10° N
Sich 1 3.9 16:45:54 10° NNE 16:49:34 27° ENE 16:53:13 10° SE
NOAA 6 4.3 16:44:51 10° SE 16:49:44 47° ENE 16:54:39 10° N
Cosmos 1980 Rocket 2.8 16:45:02 10° NNW 16:50:10 33° NE 16:55:15 10° ESE
Cosmos 2221 2.6 16:47:08 10° S 16:51:25 84° W 16:55:45 10° N
Cosmos 1805 Rocket 4.1 16:47:38 10° N 16:51:38 35° ENE 16:55:36 10° SE
Cosmos 2369 4.1 16:46:45 10° NNW 16:52:12 42° NE 16:57:36 10° SE
CZ-4C R/B 3.3 16:49:41 10° NNW 16:56:11 42° NE 17:03:49 10° ESE
Cosmos 1842 Rocket 3.7 16:51:50 10° S 16:56:17 87° W 17:00:48 10° N
USA 234 3.3 16:49:52 10° ESE 16:56:23 74° NNE 17:02:54 10° NW
Cosmos 1092 Rocket 4.2 16:51:28 10° N 16:57:41 53° ENE 17:03:50 10° SSE
Cosmos 2084 3.6 16:53:54 10° NW 16:58:12 83° SW 17:02:40 10° SE
NOSS 3-1 (A) 4.2 16:51:06 10° NW 16:58:35 89° NE 17:07:23 10° SE
USA 306 3.9 16:56:06 10° WNW 16:59:59 33° N 17:03:35 11° ENE
Cosmos 1812 4.4 16:58:07 10° ESE 17:00:27 16° E 17:02:43 10° NE
SL-16 R/B 3.7 16:57:34 10° N 17:01:02 16° NE 17:04:16 11° ENE
ISS -3.5 16:58:17 10° WNW 17:01:37 51° NNE 17:04:57 10° E
Meteor 1-25 Rocket 4.2 16:57:50 10° N 17:03:23 64° ENE 17:08:57 10° SSE
NOSS 2-2 (D) 4.5 16:59:18 10° NNW 17:04:08 50° NE 17:10:50 10° ESE
NOSS 2-2 (E) 4.4 16:59:25 10° NW 17:04:30 60° NE 17:11:37 10° SE
SMAP 3.1 17:01:05 10° SSE 17:05:40 62° ENE 17:10:17 10° N
Cosmos 2082 Rocket 3.1 17:00:58 10° SSE 17:05:50 30° ESE 17:10:43 10° NE
Meteor PRIRODA 3.9 17:02:43 10° S 17:06:21 72° WSW 17:09:59 10° NNW
Cosmos 1939 Rocket 2.9 17:02:48 10° SSE 17:06:53 68° ENE 17:10:57 10° N
CORIOLIS 4.2 17:03:21 10° SSE 17:08:39 62° ENE 17:14:01 10° N
Cosmos 44 Rocket 4.5 17:07:09 10° NNW 17:11:09 24° NE 17:14:23 13° E
NOAA 12 4.3 17:06:34 10° S 17:11:54 79° WSW 17:17:14 10° NNW
CZ-4B DEB 4.2 17:09:37 10° SSE 17:15:02 61° ENE 17:20:28 10° N
Cosmos 2278 4.2 17:10:55 10° NNW 17:16:13 38° NE 17:21:29 10° ESE
Cosmos 1602 3.7 17:13:05 10° N 17:16:56 62° E 17:20:46 10° SSE
USA 307 3.9 17:14:56 10° WNW 17:18:49 32° N 17:21:38 16° NE
Cosmos 1627 Rocket 4.4 17:13:02 10° N 17:19:12 64° ENE 17:25:15 10° SSE
AQUARIUS 4.1 17:15:07 10° SSE 17:19:34 72° ENE 17:24:04 10° N
Cosmos 540 Rocket 3.5 17:15:46 10° S 17:20:45 58° ESE 17:25:47 10° NNE
Cosmos 2034 Rocket 4.2 17:16:01 10° SSW 17:22:11 75° W 17:28:22 10° N
Radarsat 4.5 17:18:52 10° SSE 17:24:04 80° ENE 17:29:17 10° NNW
ARGOS 3.7 17:20:30 10° SE 17:25:19 34° ENE 17:30:08 10° N
Cosmos 2279 Rocket 4.4 17:20:22 10° SSE 17:26:00 38° E 17:31:38 10° NNE
COSMO-SKYMED 1 3.6 17:23:24 14° NE 17:26:14 26° E 17:29:53 10° SSE
COSMOS 2406 3.2 17:20:39 10° SSW 17:26:21 70° ESE 17:32:05 10° NNE
Cosmos 1833 Rocket 2.7 17:22:02 10° SSW 17:27:39 90° ESE 17:33:20 10° NNE
Cosmos 1782 2.9 17:25:24 10° S 17:29:18 55° E 17:33:13 10° NNE
SL-08 R/B 4.5 17:25:08 10° N 17:29:35 42° WNW 17:33:57 10° SW
Meteor 2-21 4.4 17:24:06 10° N 17:30:12 68° ENE 17:36:12 10° SSE
ATLAS 5 CENTAUR R/B 3.1 17:23:04 10° NW 17:31:13 33° NNE 17:33:09 21° ENE
ATLAS CENTAUR R/B 4.0 17:32:26 10° NW 17:34:30 13° NNW 17:36:39 10° N
Cosmos 1633 Rocket 3.6 17:30:47 10° N 17:34:49 35° ENE 17:38:51 10° SE
Cosmos 468 Rocket 4.3 17:30:15 10° SSW 17:35:22 67° WNW 17:40:35 10° NNE
Cosmos 1818 4.2 17:30:20 10° NNW 17:35:24 36° NE 17:38:50 18° E
YAOGAN 1 4.3 17:39:35 16° NNE 17:39:35 16° NNE 17:40:57 10° NNE
Cosmos 1898 Rocket 4.2 17:33:46 10° NNW 17:38:57 58° WSW 17:44:01 10° S
ERBS 4.3 17:37:46 10° NW 17:39:55 16° NNW 17:41:01 14° NNE
CZ-2D R/B 3.1 17:36:32 10° SSE 17:40:21 74° ENE 17:44:11 10° N
GEOS 3 Rocket 4.3 17:37:58 20° E 17:40:44 33° NE 17:45:20 10° NNW
USA 308 3.9 17:37:37 10° WNW 17:41:29 32° N 17:43:13 23° NE
Cosmos 1634 Rocket 4.0 17:36:31 10° S 17:42:49 78° E 17:49:11 10° N
COSMOS 2455 2.8 17:37:36 10° SSW 17:43:34 68° ESE 17:48:14 17° NE
PAYLOAD B 4.2 17:39:15 10° SSE 17:44:51 82° ENE 17:50:29 10° NNW
CZ-2C R/B 2.8 17:40:47 10° NNE 17:45:46 44° E 17:50:41 10° S
Cosmos 1500 3.0 17:42:41 10° N 17:46:28 89° E 17:50:11 10° S
CZ-4B R/B 3.1 17:42:04 10° SSE 17:47:24 62° ENE 17:52:40 10° N
Cosmos 2026 Rocket 4.0 17:41:51 10° N 17:48:00 83° W 17:54:04 10° S
Cosmos 1151 Rocket 3.2 17:44:10 10° SSE 17:48:19 49° E 17:51:27 17° NNE
Lacrosse 5 rocket 2.0 17:46:08 10° NW 17:49:44 35° NNE 17:50:35 31° NE
Okean O Rocket 1.8 17:47:10 10° SE 17:51:27 49° ENE 17:55:46 10° N
Cosmos 2208 Rocket 4.4 17:54:27 10° S 17:59:31 43° ESE 18:01:39 29° NE
CZ-4 R/B 4.4 17:56:44 10° SSE 18:00:45 56° ENE 18:04:50 10° N
Cosmos 1666 Rocket 3.4 17:56:17 10° N 18:00:45 79° E 18:05:09 10° SSE
Meteor 1-11 Rocket 4.2 17:57:34 10° N 18:02:43 35° ENE 18:05:45 21° ESE
H-2A R/B 2.1 17:58:23 10° S 18:03:33 77° WSW 18:08:37 10° NNW
Cosmos 2150 Rocket 4.4 17:59:03 10° N 18:03:52 38° ENE 18:04:48 35° E
Cosmos 1470 Rocket 3.9 17:59:41 10° N 18:03:56 42° ENE 18:08:11 10° SSE
USA 267 3.5 18:01:04 22° NE 18:05:22 62° NNW 18:11:47 10° WSW
Cosmos 1328 Rocket 3.6 18:01:31 10° S 18:05:50 54° E 18:07:30 34° NE
Cosmos 1655 Rocket 4.2 17:59:49 10° N 18:06:02 48° ENE 18:12:08 10° SSE
Cosmos 2360 Rocket 3.6 18:03:48 10° N 18:07:10 21° NNE 18:07:10 21° NNE
USA 305 3.7 18:04:22 10° WNW 18:08:17 35° N 18:08:46 34° NNE
Landsat 5 3.5 18:08:42 48° E 18:08:52 48° E 18:12:45 10° S
SKYMED 2 3.4 18:12:00 25° NNE 18:14:31 80° ESE 18:18:51 10° S
Cosmos 2180 Rocket 4.4 18:08:21 10° S 18:14:38 68° E 18:20:51 10° NNE
Cosmos 841 Rocket 3.8 18:09:47 10° SSW 18:14:55 65° WNW 18:18:54 17° NNE
Cosmos 1666 2.7 18:12:12 10° NNW 18:15:56 76° W 18:19:37 10° S
Feng Yun 1-1 Rocket 4.3 18:11:02 10° SSE 18:16:51 60° ENE 18:22:37 10° N
Meteor 2-8 Rocket 4.3 18:12:06 10° S 18:18:12 70° E 18:24:20 10° NNE
ATLAS CENTAUR R/B 2.9 18:10:44 10° WSW 18:19:10 56° NW 18:20:44 36° NNE
Cosmos 1125 Rocket 3.6 18:16:57 10° NNW 18:22:03 48° ENE 18:22:14 48° ENE
Cosmos 2322 Rocket 2.7 18:23:03 10° NNW 18:27:49 39° NE 18:27:49 39° NE
Cosmos 1980 Rocket 3.2 18:28:56 10° NW 18:34:20 46° WSW 18:39:40 10° S
SL-08 RB Rocket 3.6 18:30:03 10° SSE 18:34:42 90° W 18:39:20 10° NNW
Cosmos 1812 3.9 18:32:09 10° SSW 18:35:49 42° WNW 18:37:47 23° NNW
ATLAS 2AS CENTAUR R/B 4.2 18:30:06 10° NW 18:35:50 22° N 18:37:26 21° NNE
ISS -2.4 18:35:12 10° WNW 18:37:58 38° WSW 18:37:58 38° WSW
USA 234 4.4 18:33:36 10° SSE 18:39:41 40° SW 18:45:48 10° WNW
USA 306 3.9 18:36:30 10° NW 18:39:35 35° NNW 18:39:35 35° NNW
CZ-4C R/B 3.3 18:38:03 10° NW 18:45:17 69° SW 18:53:42 10° SSE
SL-16 R/B 2.1 18:40:35 10° NNW 18:46:11 68° NE 18:46:11 68° NE
Cosmos 2082 Rocket 3.0 18:44:13 10° SW 18:49:42 48° WNW 18:52:35 26° N
Cosmos 44 Rocket 3.3 18:48:18 10° NW 18:53:09 75° WSW 18:53:09 75° WSW
Cosmos 2333 Rocket 4.1 18:52:38 10° N 18:54:27 18° N 18:54:27 18° N
USA 307 4.5 18:55:16 10° NW 18:57:40 29° NW 18:57:40 29° NW
COSMO-SKYMED 1 4.1 19:00:37 24° NNW 19:02:26 34° WNW 19:06:22 10° SW
ARGOS 4.5 19:00:29 10° SSW 19:05:30 39° W 19:10:34 10° NNW
Cosmos 2298 Rocket 4.4 19:03:38 10° NNW 19:08:55 64° WSW 19:09:28 59° SW
Cosmos 2266 Rocket 4.5 19:08:49 10° NNW 19:15:05 60° W 19:21:21 10° S
GEOS 3 Rocket 4.0 19:19:06 60° W 19:19:06 60° W 19:23:43 10° NW
Cosmos 1818 4.3 19:13:52 10° NW 19:19:10 50° WSW 19:19:33 49° SW
Cosmos 2219 Rocket 4.4 19:17:14 10° NNW 19:18:11 14° N 19:18:11 14° N
CZ-2C R/B 4.4 19:22:06 13° N 19:25:51 28° WNW 19:30:11 10° WSW
Okean O Rocket 4.2 19:24:52 10° SW 19:28:04 19° W 19:31:18 10° NW
Lacrosse 5 rocket 3.9 19:25:04 10° WNW 19:26:12 18° WNW 19:26:12 18° WNW
COSMOS 2455 4.3 19:24:45 10° W 19:30:00 30° NW 19:31:24 27° NNW
BREEZE-M DEB (TANK) 4.2 19:24:19 10° SW 19:44:57 79° S 19:44:57 79° S
USA 267 4.2 19:48:24 38° NNW 19:48:24 38° NNW 19:53:41 10° WNW
Cosmos 2360 Rocket 4.1 19:47:08 10° NNW 19:48:57 21° NNW 19:48:57 21° NNW
Cosmos 2322 Rocket 4.2 20:07:14 10° NW 20:09:41 23° WNW 20:09:41 23° WNW
